Stations météo

Publicité
Perpignan, France (7747): Température de l'air & dewpoint: 13.04.2019 03:00:00 - 19.04.2019 03:00:00 (CEST)Perpignan, France (7747): Température de l'air 5cm: 13.04.2019 03:00:00 - 19.04.2019 03:00:00 (CEST)Perpignan, France (7747): Température de l'air -20cm & Température de l'air -100cm: 13.04.2019 03:00:00 - 19.04.2019 03:00:00 (CEST)Perpignan, France (7747): Vitesse du vent & gusts: 13.04.2019 03:00:00 - 19.04.2019 03:00:00 (CEST)Perpignan, France (7747): Direction du vent: 13.04.2019 03:00:00 - 19.04.2019 03:00:00 (CEST)Perpignan, France (7747): reduced air pressure: 13.04.2019 03:00:00 - 19.04.2019 03:00:00 (CEST)Perpignan, France (7747): visibility: 13.04.2019 03:00:00 - 19.04.2019 03:00:00 (CEST)Perpignan, France (7747): Quantités de précipitations: 13.04.2019 03:00:00 - 19.04.2019 03:00:00 (CEST)
Date & Time tt [°C] td [°C] tt 5cm [°C] tt -20cm [°C] tt -100cm [°C] ff [km/h] ff [knt] fx [km/h] fx [knt] dd ppp [hPa] vv [km] rr [mm]
19.04.2019 03:00:00 10,8 10,0 6,1 16,3 15,4 5 3 7 4 N 1022,1 17 0,0
19.04.2019 02:00:00 10,7 10,1 6,0 16,5 15,4 4 2 6 3 N 1022,5 8 0,0
19.04.2019 01:00:00 11,5 10,6 6,9 16,6 15,4 0 0 7 4 N 1022,5 8 0,0
19.04.2019 00:00:00 11,4 10,5 7,1 16,8 15,3 0 0 3 2 N 1022,1 11 0,0
18.04.2019 23:00:00 12,6 11,3 8,7 16,9 15,3 3 1 7 4 NNE 1021,8 15 0,0
18.04.2019 22:00:00 13,2 11,4 11,8 16,9 15,4 5 3 11 6 ENE 1021,5 16 0,0
18.04.2019 21:00:00 13,8 11,1 13,1 17,0 15,4 8 5 16 8 E 1021,1 22 0,0
18.04.2019 20:00:00 14,6 11,0 14,4 17,0 15,3 9 5 16 9 E 1020,5 33 0,0
18.04.2019 19:00:00 15,2 10,8 15,8 16,9 15,3 11 6 22 12 ESE 1020,3 44 0,0
18.04.2019 18:00:00 15,5 11,5 16,6 16,8 15,3 16 8 26 14 E 1019,8 40 0,0
18.04.2019 17:00:00 15,5 11,3 17,1 16,6 15,3 19 10 26 14 E 1019,9 32 0,0
18.04.2019 16:00:00 16,1 11,5 18,1 16,4 15,3 18 10 26 14 E 1019,9 37 0,0
18.04.2019 15:00:00 16,8 10,2 19,9 16,2 15,4 20 11 36 20 E 1020,1 34 0,0
18.04.2019 14:00:00 17,5 10,6 19,4 16,0 15,3 24 13 34 19 E 1020,0 57 0,0
18.04.2019 13:00:00 16,2 10,9 18,1 15,9 15,3 22 12 39 21 ESE 1020,6 45 0,0
18.04.2019 12:00:00 16,0 11,4 18,2 15,8 15,3 25 14 38 20 ESE 1020,6 56 0,0
18.04.2019 11:00:00 15,4 11,6 16,3 15,7 15,3 26 14 36 20 ESE 1020,4 44 0,0
18.04.2019 10:00:00 14,7 11,5 16,1 15,7 15,3 24 13 33 18 ESE 1019,9 31 0,0
18.04.2019 09:00:00 14,1 12,1 13,2 15,8 15,3 20 11 32 18 E 1019,4 20 0,0
18.04.2019 08:00:00 12,9 12,0 12,3 15,9 15,3 15 8 25 14 E 1019,1 18 0,0
18.04.2019 07:00:00 12,7 11,6 12,3 16,0 15,3 19 11 31 17 ESE 1018,5 21 0,0
18.04.2019 06:00:00 12,8 11,9 12,2 16,1 15,2 16 9 26 14 ESE 1018,7 20 0,0
18.04.2019 05:00:00 12,8 11,9 12,2 16,3 15,3 16 9 28 15 ESE 1018,5 15 0,0
18.04.2019 04:00:00 12,7 11,8 12,2 16,4 15,2 13 7 24 13 ESE 1018,4 18 0,0
18.04.2019 03:00:00 12,9 12,0 12,2 16,5 15,3 16 9 22 12 ESE 1018,6 17 0,0
18.04.2019 02:00:00 12,7 11,6 11,6 16,7 15,2 10 5 16 9 ESE 1018,9 19 0,0
18.04.2019 01:00:00 12,9 11,8 11,5 16,8 15,3 10 5 15 8 ESE 1019,0 19 0,0
18.04.2019 00:00:00 12,5 11,1 11,3 16,9 15,2 6 4 13 7 SSE 1018,8 22 0,0
17.04.2019 23:00:00 13,2 11,6 12,5 17,0 15,2 11 6 27 15 SSE 1018,9 23 0,0
17.04.2019 22:00:00 13,7 11,7 13,6 17,1 15,3 15 8 34 18 SE 1018,6 27 0,0
17.04.2019 21:00:00 13,8 11,7 13,8 17,1 15,2 20 11 41 22 SE 1017,9 31 0,0
17.04.2019 20:00:00 14,1 11,6 14,3 17,1 15,2 23 13 46 25 ESE 1017,5 36 0,0
17.04.2019 19:00:00 14,5 11,5 15,2 17,0 15,2 24 13 50 27 ESE 1017,1 33 0,0
17.04.2019 18:00:00 15,1 11,7 16,4 16,9 15,3 30 16 51 28 ESE 1016,6 22 0,0
17.04.2019 17:00:00 15,5 11,3 16,8 16,6 15,2 33 18 57 31 ESE 1016,5 27 0,0
17.04.2019 16:00:00 16,8 11,3 19,6 16,3 15,2 32 18 59 32 ESE 1016,8 19 0,0
17.04.2019 15:00:00 17,6 11,6 20,2 15,9 15,2 37 20 56 30 ESE 1017,1 25 0,0
17.04.2019 14:00:00 17,5 11,5 19,2 15,6 15,2 32 17 55 30 ESE 1017,6 30 0,0
17.04.2019 13:00:00 17,5 11,1 21,1 15,3 15,2 32 17 48 26 SE 1018,2 33 0,0
17.04.2019 12:00:00 17,2 11,2 20,4 15,1 15,2 27 15 43 23 SE 1018,5 40 0,0
17.04.2019 11:00:00 16,1 11,0 18,2 15,1 15,2 28 15 44 24 SE 1018,7 45 0,0
17.04.2019 10:00:00 14,9 10,9 16,0 15,1 15,2 22 12 34 19 SE 1018,6 48 0,0
17.04.2019 09:00:00 12,8 10,9 12,0 15,1 15,2 10 5 17 9 ESE 1018,9 18 0,0
17.04.2019 08:00:00 11,2 10,4 10,1 15,2 15,2 10 5 17 9 E 1018,9 12 0,0
17.04.2019 07:00:00 11,2 10,3 10,4 15,3 15,2 14 8 19 10 E 1018,7 16 0,0
17.04.2019 06:00:00 11,7 11,1 11,2 15,4 15,2 8 4 18 10 ENE 1018,9 12 0,0
17.04.2019 05:00:00 11,3 10,8 10,2 15,5 15,2 8 5 14 7 NE 1019,4 13 0,0
17.04.2019 04:00:00 10,3 9,8 8,1 15,7 15,2 7 4 11 6 N 1019,7 11 0,0
17.04.2019 03:00:00 9,6 9,0 7,8 15,8 15,2 9 5 10 6 N 1020,1 7 0,0
17.04.2019 02:00:00 10,1 9,3 7,1 16,0 15,2 5 3 7 4 N 1020,7 9 0,0
17.04.2019 01:00:00 10,9 9,5 7,9 16,1 15,2 3 2 6 4 N 1021,2 9 0,0
17.04.2019 00:00:00 11,7 10,3 8,7 16,2 15,2 3 2 5 3 ENE 1021,2 19 0,0
16.04.2019 23:00:00 11,7 9,8 9,3 16,3 15,2 4 2 9 5 E 1021,5 22 0,0
16.04.2019 22:00:00 12,4 10,3 11,8 16,3 15,2 7 4 11 6 ESE 1021,5 26 0,0
16.04.2019 21:00:00 13,2 10,2 12,6 16,4 15,1 5 3 7 4 ESE 1021,2 32 0,0
16.04.2019 20:00:00 13,6 10,0 13,7 16,4 15,2 5 3 9 5 E 1020,9 48 0,0
16.04.2019 19:00:00 13,7 9,1 14,4 16,3 15,2 6 4 15 8 E 1020,8 59 0,0
16.04.2019 18:00:00 14,0 10,0 14,9 16,1 15,2 9 5 19 11 ESE 1020,8 51 0,0
16.04.2019 17:00:00 14,4 10,4 16,4 16,0 15,2 10 6 21 12 ESE 1020,7 37 0,0
16.04.2019 16:00:00 14,8 11,0 17,1 15,8 15,1 14 8 23 13 ESE 1020,9 32 0,0
16.04.2019 15:00:00 15,2 11,2 18,0 15,6 15,1 18 10 28 15 E 1020,9 36 0,0
16.04.2019 14:00:00 15,3 12,2 15,4 15,4 15,1 15 8 27 15 ENE 1020,7 29 0,0
16.04.2019 13:00:00 15,5 11,3 17,9 15,3 15,1 14 7 24 13 NE 1021,0 38 0,0
16.04.2019 12:00:00 15,1 10,1 17,0 15,2 15,2 16 9 28 15 N 1021,1 57 0,0
16.04.2019 11:00:00 15,3 11,3 14,7 15,2 15,0 16 9 30 16 NNE 1020,3 60 0,0
16.04.2019 10:00:00 12,9 10,3 12,4 15,2 15,1 19 10 29 16 N 1020,3 44 0,0
16.04.2019 09:00:00 11,9 9,8 11,7 15,3 15,1 15 8 31 17 N 1019,7 44 0,0
16.04.2019 08:00:00 11,7 10,1 10,2 15,4 15,2 10 6 18 10 NNW 1018,9 52 0,0
16.04.2019 07:00:00 10,5 9,3 9,7 15,5 15,1 6 3 11 6 W 1018,2 19 0,0
16.04.2019 06:00:00 10,2 9,3 9,6 15,7 15,1 3 2 13 7 S 1018,0 13 0,0
16.04.2019 05:00:00 10,0 8,9 9,5 15,8 15,1 8 4 12 7 WSW 1018,0 19 1,2
16.04.2019 04:00:00 10,0 8,6 9,3 15,9 15,2 9 5 21 12 W 1017,6 4,6 3,8
16.04.2019 03:00:00 10,7 7,9 9,4 16,1 15,1 12 6 17 9 SW 1018,0 7 0,2
16.04.2019 02:00:00 12,4 5,5 10,4 16,2 15,1 6 3 18 10 W 1017,3 38 0,0
16.04.2019 01:00:00 12,6 4,8 10,0 16,3 15,1 3 2 15 8 SSE 1017,2 44 0,0
16.04.2019 00:00:00 13,4 7,2 12,6 16,4 15,1 8 5 35 19 SSW 1017,1 39 0,0
15.04.2019 23:00:00 13,4 6,0 12,5 16,5 15,1 21 12 36 19 SE 1015,4 40 0,0
15.04.2019 22:00:00 12,9 4,6 12,3 16,6 15,1 16 9 30 16 SE 1015,7 47 0,0
15.04.2019 21:00:00 12,9 4,3 12,2 16,7 15,1 17 9 29 16 SE 1015,3 45 0,0
15.04.2019 20:00:00 13,8 3,3 13,7 16,7 15,1 18 10 33 18 ESE 1015,2 46 0,0
15.04.2019 19:00:00 14,0 4,8 14,5 16,6 15,1 20 11 46 25 SE 1015,3 40 0,0
15.04.2019 18:00:00 13,8 5,4 14,9 16,5 15,1 29 16 46 25 ESE 1015,6 37 0,0
15.04.2019 17:00:00 14,2 1,5 16,2 16,2 15,1 26 14 39 21 E 1016,1 32 0,0
15.04.2019 16:00:00 15,1 6,1 18,7 15,9 15,1 25 13 40 21 E 1016,6 30 0,0
15.04.2019 15:00:00 14,5 5,0 18,0 15,6 15,1 20 11 35 19 E 1017,2 26 0,0
15.04.2019 14:00:00 14,8 2,3 18,0 15,3 15,0 17 9 26 14 E 1017,7 30 0,0
15.04.2019 13:00:00 13,8 3,8 19,8 15,1 15,0 16 9 27 14 E 1018,1 29 0,0
15.04.2019 12:00:00 14,1 3,5 19,0 14,9 15,0 12 6 26 14 E 1018,8 29 0,0
15.04.2019 11:00:00 13,2 1,8 17,1 14,9 15,0 15 8 25 13 E 1019,2 32 0,0
15.04.2019 10:00:00 12,9 3,0 16,6 15,0 15,0 14 8 26 14 E 1019,0 26 0,0
15.04.2019 09:00:00 11,1 3,4 13,4 15,2 15,0 0 0 5 3 N 1019,1 33 0,0
15.04.2019 08:00:00 8,9 4,1 3,6 15,3 15,0 3 1 5 3 W 1018,7 32 0,0
15.04.2019 07:00:00 7,9 3,2 3,5 15,5 15,0 4 2 7 4 NNW 1018,3 34 0,0
15.04.2019 06:00:00 9,1 2,9 3,7 15,6 15,0 0 0 4 2 N 1018,3 35 0,0
15.04.2019 05:00:00 10,4 3,0 5,8 15,7 15,0 4 2 6 3 NE 1018,5 34 0,0
15.04.2019 04:00:00 11,3 3,3 10,2 15,8 15,0 5 3 12 7 ENE 1018,6 36 0,0
15.04.2019 03:00:00 12,1 3,1 11,7 15,9 15,0 11 6 19 11 E 1018,8 40 0,0
15.04.2019 02:00:00 13,0 4,2 12,7 16,0 15,0 14 8 25 14 E 1018,7 47 0,0
15.04.2019 01:00:00 15,0 1,8 13,9 16,1 15,0 14 8 24 13 NNW 1018,4 60 0,0
15.04.2019 00:00:00 15,3 1,4 14,2 16,1 15,0 16 9 28 15 NNW 1017,9 60 0,0
14.04.2019 23:00:00 15,6 1,7 14,5 16,2 15,0 16 9 28 15 NW 1017,6 60 0,0
14.04.2019 22:00:00 15,6 2,4 14,6 16,3 15,0 21 11 41 22 NNW 1016,9 60 0,0
14.04.2019 21:00:00 15,9 3,0 15,2 16,3 15,0 21 11 45 24 N 1016,0 60 0,0
14.04.2019 20:00:00 16,4 2,0 16,0 16,3 15,0 19 10 47 25 NNW 1015,2 56 0,0
14.04.2019 19:00:00 17,5 0,2 17,4 16,2 14,9 17 9 37 20 NW 1015,2 60 0,0
14.04.2019 18:00:00 18,1 0,2 18,6 16,2 14,9 25 13 41 22 NNW 1014,5 39 0,0
14.04.2019 17:00:00 18,5 -0,4 19,0 16,0 15,0 22 12 45 24 NW 1014,2 47 0,0
14.04.2019 16:00:00 18,9 0,0 20,5 15,8 14,9 25 13 48 26 NNW 1014,3 51 0,0
14.04.2019 15:00:00 19,1 1,1 17,4 15,6 14,9 23 13 38 21 NNW 1014,5 36 0,0
14.04.2019 14:00:00 15,3 4,9 17,9 15,3 14,9 26 14 39 21 ESE 1014,9 22 0,0
14.04.2019 13:00:00 14,4 5,5 17,8 15,1 14,9 12 7 23 12 ESE 1015,2 19 0,0
14.04.2019 12:00:00 13,9 5,5 16,1 15,0 14,9 15 8 25 14 E 1015,6 19 0,0
14.04.2019 11:00:00 13,9 6,7 16,0 14,9 14,9 14 7 21 11 E 1015,8 18 0,0
14.04.2019 10:00:00 13,2 6,1 15,0 15,0 14,8 9 5 14 8 ENE 1015,7 21 0,0
14.04.2019 09:00:00 12,5 6,3 11,9 15,1 14,9 7 4 11 6 E 1015,8 20 0,0
14.04.2019 08:00:00 11,2 5,1 4,1 15,2 14,9 4 2 6 4 NNE 1015,6 38 0,0
14.04.2019 07:00:00 9,7 1,6 3,9 15,4 14,8 0 0 6 3 N 1015,3 45 0,0
14.04.2019 06:00:00 10,4 0,4 7,7 15,5 14,8 5 3 11 6 ESE 1015,1 55 0,0
14.04.2019 05:00:00 12,0 -1,2 8,5 15,6 14,9 0 0 9 5 N 1015,3 59 0,0
14.04.2019 04:00:00 12,7 -2,0 10,0 15,8 14,8 9 5 21 12 W 1015,2 58 0,0
14.04.2019 03:00:00 13,8 -3,1 10,5 15,9 14,8 15 8 25 13 W 1015,3 53 0,0
14.04.2019 02:00:00 14,3 -3,1 10,5 16,1 14,8 19 10 33 18 WNW 1015,6 53 0,0
14.04.2019 01:00:00 14,8 -3,1 13,3 16,3 14,9 24 13 39 21 NNW 1016,1 57 0,0
14.04.2019 00:00:00 15,7 -3,3 13,9 16,4 14,9 26 14 39 21 NNW 1016,3 51 0,0
13.04.2019 23:00:00 15,9 -3,6 10,7 16,5 14,8 22 12 33 18 NW 1016,5 58 0,0
13.04.2019 22:00:00 14,8 -4,5 9,5 16,6 14,8 11 6 31 17 WNW 1016,5 60 0,0
13.04.2019 21:00:00 17,6 -7,0 14,1 16,6 14,8 21 12 44 24 NNW 1015,6 60 0,0
13.04.2019 20:00:00 19,2 -9,9 17,5 16,6 14,8 24 13 49 26 NW 1015,0 41 0,0
13.04.2019 19:00:00 20,5 -9,9 22,1 16,4 14,8 25 14 44 24 NNW 1014,7 45 0,0
13.04.2019 18:00:00 21,6 -8,0 20,0 16,1 14,8 27 15 48 26 NW 1014,6 48 0,0
13.04.2019 17:00:00 20,2 -9,1 20,2 15,7 14,8 29 16 52 28 NW 1014,8 29 0,0
13.04.2019 16:00:00 21,5 -8,1 24,4 15,3 14,8 27 15 50 27 NNW 1015,2 20 0,0
13.04.2019 15:00:00 21,3 -4,0 24,1 14,9 14,8 27 15 54 29 NW 1015,8 21 0,0
13.04.2019 14:00:00 20,4 -4,0 23,5 14,6 14,8 29 16 57 31 NW 1016,1 23 0,0
13.04.2019 13:00:00 18,9 -4,6 24,7 14,3 14,8 31 17 54 29 NNW 1016,7 25 0,0
13.04.2019 12:00:00 17,7 -2,1 20,4 14,1 14,8 32 17 56 31 NW 1017,3 26 0,0
13.04.2019 11:00:00 16,4 -0,4 20,4 14,1 14,8 38 20 62 33 NW 1017,2 20 0,0
13.04.2019 10:00:00 14,7 0,9 14,6 14,2 14,8 30 16 54 29 NW 1017,7 34 0,0
13.04.2019 09:00:00 13,9 1,8 13,1 14,3 14,8 18 10 36 20 NW 1017,3 17 0,0
13.04.2019 08:00:00 12,1 1,1 10,0 14,5 14,8 21 11 37 20 NW 1017,0 20 0,0
13.04.2019 07:00:00 11,8 0,8 6,5 14,6 14,8 23 12 34 18 NW 1016,4 23 0,0
13.04.2019 06:00:00 10,9 1,1 6,9 14,8 14,8 11 6 24 13 NW 1016,4 24 0,0
13.04.2019 05:00:00 11,9 0,6 8,0 14,9 14,8 9 5 26 14 NW 1016,7 26 0,0
13.04.2019 04:00:00 13,3 0,6 10,3 15,1 14,8 19 10 31 17 NNW 1016,9 29 0,0
13.04.2019 03:00:00 13,7 0,3 11,0 15,2 14,8 13 7 48 26 NNW 1017,2 28 0,0

tt = Température de l'air
td = dewpoint
tt 5cm = Température de l'air 5cm
tt -20cm = Température de l'air -20cm
tt -100cm = Température de l'air -100cm
ff = Vitesse du vent
fx = gusts
dd = Direction du vent
ppp = reduced air pressure
vv = visibility
rr = Quantités de précipitations

stations d'obs. à proximité